CW8553 Weather Reports


Display with metric or nautical units.
time (UTC)temp
F
wind
direction
speed
MPH
gust
MPH
rain 1hr
in
rain 24hr
in
rain mn
in
humidity
%
barometer
mb
20260507181537 60 0 0.0 0.0 0.00 0.00 0.00 67 1020.4
20260507180040 59 0 0.0 0.0 0.00 0.00 0.00 66 1020.4
20260507174540 58 0 0.0 0.0 0.00 0.00 0.00 73 1020.5
20260507173041 58 0 0.0 0.0 0.00 0.00 0.00 73 1020.6
20260507171539 58 0 0.0 0.0 0.00 0.00 0.00 72 1020.5
20260507170039 56 0 0.0 0.0 0.00 0.00 0.00 73 1020.5
20260507164538 55 0 0.0 0.0 0.00 0.00 0.00 77 1020.5
20260507163037 55 0 0.0 0.0 0.00 0.00 0.00 76 1020.6
20260507161535 55 0 0.0 0.0 0.00 0.00 0.00 76 1020.6
20260507160041 54 0 0.0 0.0 0.00 0.00 0.00 78 1020.5
20260507154540 53 0 0.0 0.0 0.00 0.00 0.00 79 1020.7
20260507153046 52 0 0.0 0.0 0.00 0.00 0.00 81 1020.8
20260507151539 52 0 0.0 0.0 0.00 0.00 0.00 80 1020.7
20260507150037 52 0 0.0 0.0 0.00 0.00 0.00 81 1020.7
20260507144538 51 0 0.0 0.0 0.00 0.00 0.00 82 1020.7
20260507143037 51 0 0.0 0.0 0.00 0.00 0.00 82 1020.7
20260507141538 50 0 0.0 0.0 0.00 0.00 0.00 84 1020.7
20260507140052 50 0 0.0 0.0 0.00 0.00 0.00 85 1020.6
20260507134541 50 0 0.0 0.0 0.00 0.00 0.00 85 1020.3
20260507133039 50 0 0.0 0.0 0.00 0.00 0.00 86 1020.4
20260507131539 50 0 0.0 0.0 0.00 0.00 0.00 86 1020.1
20260507130049 50 0 0.0 0.0 0.00 0.00 0.00 87 1020.2
20260507124543 50 0 0.0 0.0 0.00 0.00 0.00 86 1020.2
20260507123051 50 0 0.0 0.0 0.00 0.00 0.00 87 1020.3
20260507121542 50 0 0.0 0.0 0.00 0.00 0.00 87 1020.3
20260507120040 50 0 0.0 0.0 0.00 0.00 0.00 88 1020.4
20260507114543 50 0 0.0 0.0 0.00 0.00 0.00 89 1020.5
20260507113039 50 0 0.0 0.0 0.00 0.00 0.00 89 1020.6
20260507111535 50 0 0.0 0.0 0.00 0.00 0.00 89 1020.7
20260507110042 50 0 0.0 0.0 0.00 0.00 0.00 90 1020.7
20260507104540 50 0 0.0 0.0 0.00 0.00 0.00 90 1020.7
20260507103038 50 0 0.0 0.0 0.00 0.00 0.00 91 1020.8
20260507101544 50 0 0.0 0.0 0.00 0.00 0.00 91 1020.8
20260507100044 50 0 0.0 0.0 0.00 0.00 0.00 91 1020.9
20260507094539 50 0 0.0 0.0 0.00 0.00 0.00 91 1020.8
20260507093040 50 0 0.0 0.0 0.00 0.00 0.00 91 1020.8
20260507091537 50 0 0.0 0.0 0.00 0.00 0.00 90 1020.8
20260507090038 50 0 0.0 0.0 0.00 0.00 0.00 89 1020.8
20260507084544 50 0 0.0 0.0 0.00 0.00 0.00 89 1020.8
20260507083047 51 0 0.0 0.0 0.00 0.00 0.00 90 1020.8
20260507081537 51 0 0.0 0.0 0.00 0.00 0.00 90 1020.8
20260507080047 51 0 0.0 0.0 0.00 0.00 0.00 90 1020.9
20260507074543 51 0 0.0 0.0 0.00 0.00 0.00 90 1020.9
20260507073035 51 0 0.0 0.0 0.00 0.00 0.00 91 1020.9
20260507071557 51 0 0.0 0.0 0.00 0.00 0.00 91 1020.9
20260507070039 51 0 0.0 0.0 0.00 0.00 0.00 91 1020.9
20260507064540 51 0 0.0 0.0 0.00 0.00 0.00 92 1021.0
20260507063040 51 0 0.0 0.0 0.00 0.00 0.00 92 1021.0
20260507061541 51 0 0.0 0.0 0.00 0.00 0.00 92 1021.1
20260507060035 51 0 0.0 0.0 0.00 0.00 0.00 92 1021.0
20260507054541 51 0 0.0 0.0 0.00 0.00 0.00 92 1021.0
20260507053042 52 0 0.0 0.0 0.00 0.00 0.00 91 1020.9
20260507051538 52 0 0.0 0.0 0.00 0.00 0.00 90 1020.9
20260507050037 53 0 0.0 0.0 0.00 0.00 0.00 88 1021.0
20260507044539 53 0 0.0 0.0 0.00 0.00 0.00 87 1021.2
20260507043040 53 0 0.0 0.0 0.00 0.00 0.00 86 1021.0
20260507041538 54 0 0.0 0.0 0.00 0.00 0.00 85 1020.9
20260507040045 54 0 0.0 0.0 0.00 0.00 0.00 85 1020.9
20260507034535 54 0 0.0 0.0 0.00 0.00 0.00 85 1020.7
20260507033043 54 0 0.0 0.0 0.00 0.00 0.00 84 1020.6
20260507031538 54 0 0.0 0.0 0.00 0.00 0.00 83 1020.5
20260507030039 55 0 0.0 0.0 0.00 0.00 0.00 83 1020.4
20260507024537 55 0 0.0 0.0 0.00 0.00 0.00 82 1020.3
20260507023036 55 0 0.0 0.0 0.00 0.00 0.00 82 1020.3
20260507021544 55 0 0.0 0.0 0.00 0.00 0.00 81 1020.2
20260507020039 56 0 0.0 0.0 0.00 0.00 0.00 81 1020.2
20260507014538 56 0 0.0 0.0 0.00 0.00 0.00 81 1020.2
20260507013039 56 0 0.0 0.0 0.00 0.00 0.00 80 1020.3
20260507011540 56 0 0.0 0.0 0.00 0.00 0.00 80 1020.2
20260507010041 56 0 0.0 0.0 0.00 0.00 0.00 79 1020.2
20260507004541 56 0 0.0 0.0 0.00 0.00 0.00 80 1020.4
20260507003038 56 0 0.0 0.0 0.00 0.00 0.00 80 1020.3
20260507001548 56 0 0.0 0.0 0.00 0.00 0.00 80 1020.3
20260507000040 56 0 0.0 0.0 0.00 0.00 0.00 79 1020.3
20260506234544 57 0 0.0 0.0 0.00 0.00 0.00 78 1020.3
20260506233039 56 0 0.0 0.0 0.00 0.00 0.00 78 1020.2
20260506231538 56 0 0.0 0.0 0.00 0.00 0.00 78 1020.4
20260506230042 56 0 0.0 0.0 0.00 0.00 0.00 78 1020.5
20260506224538 56 0 0.0 0.0 0.00 0.00 0.00 77 1020.5
20260506223036 56 0 0.0 0.0 0.00 0.00 0.00 78 1020.4
20260506221542 56 0 0.0 0.0 0.00 0.00 0.00 79 1020.7
20260506220051 56 0 0.0 0.0 0.00 0.00 0.00 78 1020.7
20260506214539 56 0 0.0 0.0 0.00 0.00 0.00 79 1020.8
20260506213038 56 0 0.0 0.0 0.00 0.00 0.00 81 1020.6
20260506211538 56 0 0.0 0.0 0.00 0.00 0.00 80 1020.9
20260506210038 56 0 0.0 0.0 0.00 0.00 0.00 80 1020.8
20260506204541 56 0 0.0 0.0 0.00 0.00 0.00 80 1020.7
20260506203115 55 0 0.0 0.0 0.00 0.00 0.00 80 1020.7
20260506201538 55 0 0.0 0.0 0.00 0.00 0.00 82 1020.5
20260506200046 55 0 0.0 0.0 0.00 0.00 0.00 82 1020.4
20260506194536 54 0 0.0 0.0 0.00 0.00 0.00 83 1020.4
20260506193041 54 0 0.0 0.0 0.00 0.00 0.00 84 1020.4
20260506191538 54 0 0.0 0.0 0.00 0.00 0.00 85 1020.3
20260506190046 53 0 0.0 0.0 0.00 0.00 0.00 85 1020.3
20260506184552 53 0 0.0 0.0 0.00 0.00 0.00 87 1020.5
20260506183041 53 0 0.0 0.0 0.00 0.00 0.00 87 1020.4